Follow iAlert.com on twitter @ialertcom
Search For Active Alerts in Your Area  
  Hi Guest:  [ Sign-up / Services ] [ Login ]

Current weather by "City, St" or "zip code"  
 

Advertise Here

Current Conditions: Bellaire, Antrim County Airport, MI

Rain


71.0 F

Last Updated on Jun 18 2018, 8:55 am EDT
Humidity: 94%
Wind Speed: SW 3.5 mph
Barometer 29.89 in
Dewpoint: 68.9 F
Visibility: 10.00 mi
Precip: --
Heat Index: NA
Wind Chill: NA
Current conditions at:

Bellaire, Antrim County Airport, MI (KACB)

Lat: 44.98 Lon: 85.198

Local Radar Image active severe weather and emergency alerts image image weather storm and storm spotter reports image weather observation monitoring service image
Local
Radar
Active
Alerts
Storm Reports Obs
Monitoring

iAlert Weather and Emergency Alert Notification Services:


ialert severe weather and emergency alerts by text message and email ialert daily weather forecast by email and text message service ialert real-time weather-observation monitoring and alert notification service ialert storm report monitoring alert notification

Observation History for Bellaire, Antrim County Airport, MI


Time Wind
(mph)
Vis
(mi)
Weather Precip (in) Temperature (F) Relative
Humidity
Wind
Chill
(°F)
Heat
Index
(°F)
Pressure
Air Dwpt altimeter
(in)
sea level
(mb)
8:55 am EDT SW 3.5 10.00 Rain -- 71.0 68.9 94% NA NA 29.89 M
7:55 am EDT N 0.0 10.00 Overcast -- 71.0 69.1 93% NA NA 29.87 M
6:55 am EDT N 0.0 10.00 Overcast -- 70.0 68.5 94% NA NA 29.87 M
5:55 am EDT N 0.0 10.00 Mostly Cloudy -- 69.0 68.0 95% NA NA 29.87 M
4:55 am EDT S 3.5 10.00 Mostly Cloudy -- 69.0 67.3 95% NA NA 29.86 M
3:55 am EDT SW 5.8 10.00 Partly Cloudy -- 69.0 67.6 95% NA NA 29.86 M
2:55 am EDT SW 4.6 10.00 Fair -- 69.0 67.5 96% NA NA 29.85 M
2:35 am EDT N 0.0 10.00 Partly Cloudy -- 69.0 67.3 96% NA NA 29.85 M
1:55 am EDT SW 3.5 5.00 Light Rain -- 68.0 67.1 96% NA NA 29.89 M
1:35 am EDT SE 5.8 2.50 Heavy Rain -- 68.0 66.9 96% NA NA 29.91 M
12:55 am EDT N 0.0 2.00 Heavy Rain -- 69.0 67.1 94% NA NA 29.92 M
11:55 pm EDT NW 11.5 G 18.4 10.00 Rain -- 73.0 65.3 76% NA NA 29.92 M
10:55 pm EDT S 4.6 10.00 Fair -- 83.0 69.1 63% NA 87 29.86 M
9:55 pm EDT S 5.8 10.00 Fair -- 83.0 68.2 60% NA 86 29.86 M
8:55 pm EDT SW 6.9 10.00 Fair -- 86.0 66.7 53% NA 89 29.86 M
7:55 pm EDT SW 6.9 10.00 Fair -- 89.0 66.7 49% NA 92 29.85 M
6:55 pm EDT SW 5.8 10.00 Fair -- 91.0 66.7 45% NA 94 29.84 M
5:55 pm EDT SW 6.9 G 19.6 10.00 Fair -- 91.0 67.3 46% NA 95 29.87 M
4:55 pm EDT SW 5.8 G 19.6 10.00 Fair -- 91.0 68.5 47% NA 95 29.88 M
3:55 pm EDT SW 8.1 G 20.7 10.00 Fair -- 92.0 68.5 46% NA 97 29.89 M
2:55 pm EDT S 8.1 10.00 Fair -- 90.0 70.7 54% NA 96 29.90 M
1:55 pm EDT W 5.8 10.00 Fair -- 88.0 70.2 55% NA 93 29.92 M
12:55 pm EDT SW 8.1 10.00 Partly Cloudy -- 87.0 71.6 60% NA 93 29.94 M
11:55 am EDT SW 6.9 10.00 Fair -- 85.0 71.2 63% NA 90 29.95 M

Regional Weather Observation


Bellaire, Antrim County Airport, MI (KACB)

Rain
71.0 F

Beaver Island, Beaver Island Airport, MI (KSJX)

Rain
59.0 F

Harbor Springs, Harbor Springs Airport, MI (KMGN)

Rain
65.0 F

Cherry Capital Airport, MI (KTVC)

Light Rain Fog/Mist
73.0 F

Gaylord Regional Airport, MI (KGLR)

Overcast
70.0 F

Pellston Regional Airport of Emmet County, MI (KPLN)

Fog/Mist
67.0 F

Advertise Here